Aérodrome :
LOGIN :

S'inscrire | Disclaimer

   EN    FR    IT 

 










Légende :    VFR   VFR Marginal   IFR   IFR Intensif   IFR Très Intensif
Visi : 
Plafond : 
>= 8 km
>= 3000ft
5 à 8 km
1000 à 3000 ft
1500m à 5 km
500 à 1000 ft
800 à 1500m
200 à 500 ft
< 800m
< 200 ft
Symboles :   Orages  Brouillard  Fortes neiges  Fortes précipitations  Vent > 20 kt
SIGMETs :   Divers  Orages  Givrage  Turbulence  Onde Orograph.  Cendres Volcan.







- Altitude de l'aérodrome : 147 ft
- Code IATA : DUS


EDDL - Düsseldorf Int.

DERNIER METAR :
  • 170520Z 15003KT 110V200 CAVOK 17/12 Q1021 NOSIG

METARs EXPIRÉS :
  • 170450Z 16003KT 130V190 CAVOK 16/12 Q1021 NOSIG
  • 170420Z VRB02KT CAVOK 14/12 Q1021 NOSIG
  • 170350Z 11003KT CAVOK 12/11 Q1021 NOSIG
  • 170320Z 11003KT 090V150 CAVOK 12/11 Q1021 NOSIG
  • 170250Z 10002KT CAVOK 12/11 Q1021 NOSIG

TAF TAF EDDL
Valide du 17 à 06h jusqu'au 18 à 12h UTC


170500Z 1706/1812 VRB03KT CAVOK
BECMG 1707/1709 16006KT
BECMG 1715/1718 VRB03KT
BECMG 1807/1809 17006KT
Pas de NOTAMs connus pour ce terrain.



MET'MAP, la Météo Aéronautique d'un coup d'oeil ! - Copyright ORBIFLY Décembre 2007 - Disclaimer

ORBIFLY MET'MAP TEAM :

Programmation & Développement : Alexandra Zaïnal
Conception & Développement : Baudouin d'Aumeries
Co-Programmation & Développement : Marc-Olivier Méhu
Soutien technique & logistique : Manuel Goepfert

Contact : metmap@orbifly.com




SOURCES & CREDITS :

   NOAA